Munising, MI

5:46 AM EDT on September 24, 2017 (GMT -0400)
Munising

Weather History for KP53 - May, 2014

Change the Weather History Date:

Sunday, May 4, 2014

  Actual Average (KISQ) Record (KISQ)
Temperature  
Mean Temperature 37 °F -  
Max Temperature 42 °F 54 °F 78 °F (1949)
Min Temperature 32 °F 36 °F 24 °F (1954)
Degree Days  
Heating Degree Days 28    
Moisture  
Dew Point 30 °F    
Average Humidity 74    
Maximum Humidity 85    
Minimum Humidity 55    
Precipitation  
Precipitation 0.00 in - - ()
Sea Level Pressure  
Sea Level Pressure 29.98 in    
Wind  
Wind Speed 9 mph (NW)    
Max Wind Speed 21 mph    
Max Gust Speed 31 mph    
Averages and records for this station are not official NWS values.
T = Trace of Precipitation, MM = Missing Value Source: NWS Daily Summary

Daily Weather History Graph

Daily Weather History Graph

Search for Another Location

Airport or City:

Trip Planner

Search our weather history database for the weather conditions in past years. The results will help you decide how hot, cold, wet, or windy it might be!

Date:

Astronomy

May. 04, 2014 Rise Set
Actual Time 6:27 AM EDT 8:59 PM EDT
Civil Twilight 5:54 AM EDT 9:33 PM EDT
Nautical Twilight 5:11 AM EDT 10:16 PM EDT
Astronomical Twilight 4:23 AM EDT 11:05 PM EDT
Moon 10:50 AM EDT (5/4) 1:05 AM EDT (5/4)
Length of Visible Light 15h 39m
Length of Day
14h 31m
Waxing Crescent, 27% of the Moon is Illuminated
May 4
Waxing Crescent
May 6
First Quarter
May 14
Full
May 21
Last Quarter
May 28
New

Hourly Weather History & Observations

Time (EDT) Temp. Windchill Dew Point Humidity Pressure Visibility Wind Dir Wind Speed Gust Speed Precip Events Conditions
12:56 AM 32.0 °F 26.4 °F 28.0 °F 85% 29.78 in - South 5.8 mph - N/A   Unknown
1:56 AM 34.0 °F - 28.9 °F 82% 29.79 in - Calm Calm - N/A   Unknown
2:56 AM 39.9 °F - 28.0 °F 63% 29.80 in - Calm Calm - N/A   Unknown
3:56 AM 42.1 °F 38.4 °F 27.0 °F 55% 29.81 in - Variable 5.8 mph 17.3 mph N/A   Unknown
4:56 AM 41.0 °F 34.7 °F 26.1 °F 55% 29.82 in - NW 10.4 mph - N/A   Unknown
5:56 AM 39.9 °F 34.5 °F 25.0 °F 55% 29.84 in - WNW 8.1 mph - N/A   Unknown
6:56 AM 37.9 °F 32.1 °F 25.0 °F 60% 29.86 in - WNW 8.1 mph - N/A   Unknown
7:56 AM 39.0 °F 30.6 °F 27.0 °F 62% 29.89 in - NW 15.0 mph 24.2 mph N/A   Unknown
8:56 AM 39.0 °F 29.9 °F 30.0 °F 70% 29.90 in - NW 17.3 mph 27.6 mph N/A   Unknown
9:56 AM 39.0 °F 32.3 °F 30.0 °F 70% 29.92 in - NW 10.4 mph 20.7 mph N/A   Unknown
10:56 AM 39.0 °F 31.0 °F 30.9 °F 73% 29.96 in - WNW 13.8 mph 26.5 mph N/A   Unknown
11:56 AM 37.9 °F 27.6 °F 32.0 °F 79% 29.99 in - NW 20.7 mph 27.6 mph N/A   Unknown
12:56 PM 37.0 °F 26.7 °F 32.0 °F 82% 30.01 in - NW 19.6 mph 29.9 mph N/A   Unknown
1:56 PM 37.0 °F 27.0 °F 32.0 °F 82% 30.03 in - NW 18.4 mph 31.1 mph N/A   Unknown
2:56 PM 37.9 °F 28.9 °F 32.0 °F 79% 30.05 in - NW 16.1 mph 26.5 mph N/A   Unknown
3:56 PM 37.0 °F 27.7 °F 30.9 °F 79% 30.06 in - NW 16.1 mph 29.9 mph N/A   Unknown
4:56 PM 37.0 °F 28.5 °F 30.9 °F 79% 30.09 in - NNW 13.8 mph 21.9 mph N/A   Unknown
5:56 PM 37.0 °F 28.9 °F 30.9 °F 79% 30.11 in - NW 12.7 mph - N/A   Unknown
6:56 PM 37.9 °F 30.9 °F 30.9 °F 76% 30.11 in - NNW 10.4 mph - N/A   Unknown
7:56 PM 37.0 °F 31.6 °F 30.9 °F 79% 30.10 in - NNW 6.9 mph - N/A   Unknown
8:56 PM 36.0 °F 29.0 °F 30.0 °F 79% 30.12 in - NW 9.2 mph - N/A   Unknown
9:56 PM 35.1 °F 30.1 °F 30.0 °F 82% 30.13 in - North 5.8 mph - N/A   Unknown
10:56 PM 35.1 °F 32.2 °F 30.0 °F 82% 30.14 in - NW 3.5 mph - N/A   Unknown
11:56 PM 34.0 °F 29.8 °F 30.0 °F 85% 30.13 in - North 4.6 mph - N/A   Unknown